| time (UTC) | temp F | wind direction | speed MPH | gust MPH | rain 1hr in | rain 24hr in | rain mn in | humidity % | barometer mb |
| 20260503021512 | 41 | 360 | 4.0 | 12.0 | 0.00 | 0.00 | 0.00 | 67 | 1014.7 |
| 20260503020012 | 41 | 360 | 2.0 | 7.0 | 0.00 | 0.00 | 0.00 | 65 | 1014.6 |
| 20260503014511 | 42 | 360 | 3.0 | 9.0 | 0.00 | 0.00 | 0.00 | 63 | 1014.6 |
| 20260503013010 | 42 | 360 | 2.0 | 8.0 | 0.00 | 0.00 | 0.00 | 61 | 1014.7 |
| 20260503011511 | 43 | 360 | 2.0 | 8.0 | 0.00 | 0.00 | 0.00 | 59 | 1014.6 |
| 20260503010013 | 44 | 360 | 6.0 | 9.0 | 0.00 | 0.00 | 0.00 | 56 | 1014.7 |
| 20260503004520 | 44 | 360 | 6.0 | 14.0 | 0.00 | 0.00 | 0.00 | 53 | 1014.8 |
| 20260503003008 | 45 | 360 | 3.0 | 11.0 | 0.00 | 0.00 | 0.00 | 52 | 1014.8 |
| 20260503001507 | 46 | 360 | 6.0 | 10.0 | 0.00 | 0.00 | 0.00 | 53 | 1014.7 |
| 20260503000006 | 46 | 223 | 4.0 | 9.0 | 0.00 | 0.00 | 0.00 | 61 | 1014.8 |
| 20260502234505 | 46 | 265 | 7.0 | 12.0 | 0.00 | 0.00 | 0.00 | 63 | 1015.0 |
| 20260502233008 | 46 | 360 | 7.0 | 16.0 | 0.00 | 0.00 | 0.00 | 62 | 1015.1 |
| 20260502231502 | 46 | 284 | 9.0 | 17.0 | 0.00 | 0.00 | 0.00 | 61 | 1015.2 |
| 20260502230101 | 46 | 360 | 10.0 | 17.0 | 0.00 | 0.00 | 0.00 | 62 | 1015.3 |
| 20260502224612 | 47 | 266 | 7.0 | 16.0 | 0.00 | 0.00 | 0.00 | 63 | 1015.4 |
| 20260502223057 | 48 | 360 | 5.0 | 11.0 | 0.00 | 0.00 | 0.00 | 57 | 1015.6 |
| 20260502221557 | 48 | 254 | 3.0 | 7.0 | 0.00 | 0.00 | 0.00 | 56 | 1015.7 |
| 20260502220054 | 48 | 287 | 3.0 | 12.0 | 0.00 | 0.00 | 0.00 | 59 | 1016.0 |
| 20260502214553 | 48 | 302 | 4.0 | 11.0 | 0.00 | 0.00 | 0.00 | 50 | 1016.1 |
| 20260502213108 | 49 | 287 | 5.0 | 8.0 | 0.00 | 0.00 | 0.00 | 44 | 1016.2 |
| 20260502211610 | 49 | 266 | 3.0 | 8.0 | 0.00 | 0.00 | 0.00 | 39 | 1016.2 |
| 20260502210049 | 48 | 290 | 4.0 | 10.0 | 0.00 | 0.00 | 0.00 | 46 | 1016.4 |
| 20260502204547 | 49 | 360 | 6.0 | 10.0 | 0.00 | 0.00 | 0.00 | 41 | 1016.6 |
| 20260502203046 | 48 | 279 | 4.0 | 10.0 | 0.00 | 0.00 | 0.00 | 48 | 1016.6 |
| 20260502201542 | 48 | 306 | 6.0 | 9.0 | 0.00 | 0.00 | 0.00 | 49 | 1016.8 |
| 20260502200039 | 47 | 308 | 7.0 | 11.0 | 0.00 | 0.00 | 0.00 | 53 | 1017.1 |
| 20260502194538 | 47 | 289 | 6.0 | 12.0 | 0.00 | 0.00 | 0.00 | 52 | 1017.3 |
| 20260502193034 | 47 | 325 | 4.0 | 9.0 | 0.00 | 0.00 | 0.00 | 53 | 1017.5 |
| 20260502191533 | 47 | 300 | 5.0 | 10.0 | 0.00 | 0.00 | 0.00 | 55 | 1017.7 |
| 20260502190038 | 47 | 360 | 6.0 | 10.0 | 0.00 | 0.00 | 0.00 | 54 | 1017.8 |
| 20260502184546 | 47 | 231 | 4.0 | 8.0 | 0.00 | 0.00 | 0.00 | 56 | 1017.9 |
| 20260502183045 | 46 | 292 | 5.0 | 8.0 | 0.00 | 0.00 | 0.00 | 65 | 1018.1 |
| 20260502181534 | 46 | 340 | 6.0 | 11.0 | 0.00 | 0.00 | 0.00 | 70 | 1018.2 |
| 20260502163021 | 44 | 320 | 7.0 | 12.0 | 0.00 | 0.00 | 0.00 | 72 | 1018.6 |
| 20260502161511 | 45 | 244 | 6.0 | 11.0 | 0.00 | 0.00 | 0.00 | 73 | 1018.7 |
| 20260502151604 | 43 | 296 | 6.0 | 11.0 | 0.00 | 0.00 | 0.00 | 79 | 1018.7 |
| 20260502123019 | 38 | 78 | 1.0 | 5.0 | 0.00 | 0.00 | 0.00 | 95 | 1019.0 |
| 20260502121515 | 36 | 348 | 1.0 | 7.0 | 0.00 | 0.00 | 0.00 | 98 | 1018.9 |
| 20260502114507 | 33 | 259 | 1.0 | 6.0 | 0.00 | 0.00 | 0.00 | 97 | 1018.9 |
| 20260502113002 | 32 | 329 | 1.0 | 6.0 | 0.00 | 0.00 | 0.00 | 97 | 1018.9 |
| 20260502111559 | 31 | 75 | 1.0 | 3.0 | 0.00 | 0.00 | 0.00 | 96 | 1018.8 |
| 20260502110053 | 31 | 74 | 1.0 | 3.0 | 0.00 | 0.00 | 0.00 | 96 | 1018.9 |
| 20260502104652 | 30 | 73 | 1.0 | 3.0 | 0.00 | 0.00 | 0.00 | 95 | 1018.9 |
| 20260502103049 | 31 | 72 | 1.0 | 3.0 | 0.00 | 0.00 | 0.00 | 95 | 1018.9 |
| 20260502101616 | 31 | 343 | 0.0 | 5.0 | 0.00 | 0.00 | 0.00 | 95 | 1018.8 |
| 20260502090104 | 31 | 322 | 1.0 | 6.0 | 0.00 | 0.00 | 0.00 | 94 | 1018.6 |
| 20260502071529 | 33 | 355 | 0.0 | 3.0 | 0.00 | 0.00 | 0.00 | 88 | 1018.4 |
| 20260502070044 | 33 | 360 | 0.0 | 2.0 | 0.00 | 0.00 | 0.00 | 86 | 1018.4 |
| 20260502064522 | 34 | 327 | 0.0 | 2.0 | 0.00 | 0.00 | 0.00 | 85 | 1018.6 |
| 20260502063018 | 35 | 340 | 0.0 | 3.0 | 0.00 | 0.00 | 0.00 | 84 | 1018.6 |
| 20260502061516 | 36 | 339 | 0.0 | 2.0 | 0.00 | 0.00 | 0.00 | 83 | 1018.6 |
| 20260502060015 | 37 | 346 | 1.0 | 5.0 | 0.00 | 0.00 | 0.00 | 82 | 1018.6 |
| 20260502054513 | 37 | 323 | 2.0 | 5.0 | 0.00 | 0.00 | 0.00 | 80 | 1018.6 |
| 20260502053011 | 37 | 345 | 2.0 | 4.0 | 0.00 | 0.00 | 0.00 | 79 | 1018.5 |
| 20260502051509 | 37 | 325 | 2.0 | 5.0 | 0.00 | 0.00 | 0.00 | 79 | 1018.5 |
| 20260502050009 | 38 | 9 | 0.0 | 5.0 | 0.00 | 0.00 | 0.00 | 79 | 1018.5 |
| 20260502044512 | 38 | 336 | 3.0 | 6.0 | 0.00 | 0.00 | 0.00 | 80 | 1018.6 |
| 20260502043006 | 38 | 344 | 3.0 | 6.0 | 0.00 | 0.00 | 0.00 | 80 | 1018.6 |
| 20260502041504 | 38 | 9 | 1.0 | 8.0 | 0.00 | 0.00 | 0.00 | 79 | 1018.4 |
| 20260502040002 | 38 | 350 | 2.0 | 7.0 | 0.00 | 0.00 | 0.00 | 79 | 1018.6 |
| 20260502034504 | 38 | 329 | 2.0 | 6.0 | 0.00 | 0.00 | 0.00 | 78 | 1018.5 |
| 20260502033101 | 38 | 351 | 2.0 | 7.0 | 0.00 | 0.00 | 0.00 | 79 | 1018.5 |
| 20260502031600 | 38 | 293 | 3.0 | 7.0 | 0.00 | 0.00 | 0.00 | 78 | 1018.5 |
| 20260502030106 | 38 | 318 | 2.0 | 7.0 | 0.00 | 0.00 | 0.00 | 77 | 1018.5 |
| 20260502024559 | 38 | 341 | 4.0 | 7.0 | 0.00 | 0.00 | 0.00 | 77 | 1018.4 |
| 20260502023124 | 38 | 9 | 3.0 | 8.0 | 0.00 | 0.00 | 0.00 | 77 | 1018.6 |